Location: Navalespino
(40.5894°N, 4.2660°W)
Time: 21:40:21
(UTC+00:00)

SL-4 R/B - Pass Details

Date: 18 April 2024
Orbit: 413 x 603 km, 51.6° (Epoch: 23 May)

Event Time Altitude Azimuth Distance (km) Brightness Sun altitude
Rises 20:12:41 0° 304° (NW) 2,535 7.4 -13.6°
Reaches altitude 10° 20:15:41 10° 330° (NNW) 1,612 5.3 -14.1°
Maximum altitude 20:17:46 15° 5° (N) 1,328 4.3 -14.5°
Drops below altitude 10° 20:19:48 10° 41° (NE) 1,558 4.2 -14.8°
Enters shadow 20:20:46 - 52° (NE) 1,803 4.4 -15.0°
